TimeEDT,TemperatureF,Dew PointF,Humidity,Sea Level PressureIn,VisibilityMPH,Wind Direction,Wind SpeedMPH,Gust SpeedMPH,PrecipitationIn,Events,Conditions,WindDirDegrees,DateUTC
12:15 AM,68.0,68.0,100,30.04,10.0,NNE,5.8,-,N/A,,Clear,30,2012-10-26 04:15:00
12:35 AM,66.2,66.2,100,30.04,10.0,NNE,5.8,-,N/A,,Clear,30,2012-10-26 04:35:00
12:55 AM,66.2,66.2,100,30.03,10.0,NNE,5.8,-,N/A,,Clear,30,2012-10-26 04:55:00
1:35 AM,64.4,64.4,100,30.01,10.0,NNE,6.9,-,N/A,,Scattered Clouds,20,2012-10-26 05:35:00
1:55 AM,64.4,64.4,100,30.01,10.0,NNE,5.8,-,N/A,,Clear,30,2012-10-26 05:55:00
2:15 AM,66.2,66.2,100,30.00,10.0,NNE,5.8,-,N/A,,Clear,30,2012-10-26 06:15:00
2:35 AM,66.2,66.2,100,30.00,10.0,NNE,6.9,-,N/A,,Clear,30,2012-10-26 06:35:00
2:55 AM,66.2,66.2,100,29.99,10.0,NNE,8.1,-,N/A,,Clear,30,2012-10-26 06:55:00
3:15 AM,64.4,64.4,100,29.98,10.0,NNE,3.5,-,N/A,,Clear,30,2012-10-26 07:15:00
3:35 AM,64.4,64.4,100,29.99,10.0,Calm,Calm,-,N/A,,Clear,0,2012-10-26 07:35:00
3:55 AM,64.4,64.4,100,29.98,10.0,NNE,5.8,-,N/A,,Clear,20,2012-10-26 07:55:00
4:35 AM,62.6,62.6,100,29.98,10.0,NNE,5.8,-,N/A,,Clear,30,2012-10-26 08:35:00
4:55 AM,62.6,62.6,100,29.98,10.0,NNE,6.9,-,N/A,,Clear,30,2012-10-26 08:55:00
5:15 AM,62.6,62.6,100,29.98,10.0,NNE,6.9,-,N/A,,Clear,20,2012-10-26 09:15:00
5:35 AM,62.6,62.6,100,29.98,10.0,NNE,6.9,-,N/A,,Clear,30,2012-10-26 09:35:00
5:55 AM,62.6,62.6,100,29.98,10.0,NNE,5.8,-,N/A,,Clear,30,2012-10-26 09:55:00
6:35 AM,62.6,62.6,100,29.98,10.0,NNE,6.9,-,N/A,,Clear,30,2012-10-26 10:35:00
6:55 AM,62.6,62.6,100,29.98,10.0,NNE,9.2,-,N/A,,Clear,30,2012-10-26 10:55:00
7:15 AM,62.6,62.6,100,29.98,10.0,NNE,6.9,-,N/A,,Clear,30,2012-10-26 11:15:00
7:35 AM,62.6,62.6,100,29.98,10.0,NNE,8.1,-,N/A,,Clear,20,2012-10-26 11:35:00
7:55 AM,62.6,62.6,100,29.98,10.0,NNE,11.5,-,N/A,,Clear,30,2012-10-26 11:55:00
8:15 AM,64.4,64.4,100,29.98,10.0,NNE,10.4,-,N/A,,Clear,20,2012-10-26 12:15:00
8:35 AM,64.4,64.4,100,29.98,10.0,NNE,10.4,-,N/A,,Clear,20,2012-10-26 12:35:00
8:55 AM,64.4,64.4,100,29.99,10.0,NNE,11.5,16.1,N/A,,Clear,20,2012-10-26 12:55:00
9:15 AM,66.2,62.6,88,29.99,10.0,NNE,11.5,18.4,N/A,,Clear,20,2012-10-26 13:15:00
9:35 AM,68.0,62.6,83,29.99,10.0,NNE,12.7,-,N/A,,Clear,20,2012-10-26 13:35:00
9:55 AM,68.0,60.8,78,29.99,10.0,NNE,17.3,-,N/A,,Clear,20,2012-10-26 13:55:00
10:15 AM,69.8,60.8,73,29.99,10.0,NNE,12.7,19.6,N/A,,Clear,20,2012-10-26 14:15:00
10:35 AM,71.6,60.8,69,29.98,10.0,NNE,11.5,-,N/A,,Clear,20,2012-10-26 14:35:00
11:15 AM,73.4,60.8,65,29.97,10.0,NNE,11.5,-,N/A,,Clear,20,2012-10-26 15:15:00
11:35 AM,73.4,62.6,69,29.97,10.0,NNE,13.8,21.9,N/A,,Clear,30,2012-10-26 15:35:00
11:55 AM,73.4,62.6,69,29.96,10.0,NNE,16.1,20.7,N/A,,Clear,20,2012-10-26 15:55:00
12:15 PM,75.2,64.4,69,29.95,10.0,NNE,15.0,19.6,N/A,,Clear,30,2012-10-26 16:15:00
12:35 PM,75.2,64.4,69,29.95,10.0,NE,17.3,23.0,N/A,,Clear,40,2012-10-26 16:35:00
12:55 PM,75.2,64.4,69,29.94,10.0,NE,15.0,20.7,N/A,,Clear,40,2012-10-26 16:55:00
1:15 PM,77.0,64.4,65,29.93,10.0,North,12.7,25.3,N/A,,Clear,10,2012-10-26 17:15:00
1:35 PM,77.0,64.4,65,29.91,10.0,NNE,13.8,19.6,N/A,,Clear,30,2012-10-26 17:35:00
1:55 PM,77.0,64.4,65,29.90,10.0,NNE,16.1,23.0,N/A,,Clear,30,2012-10-26 17:55:00
2:15 PM,77.0,64.4,65,29.90,10.0,NE,12.7,23.0,N/A,,Clear,50,2012-10-26 18:15:00
2:35 PM,75.2,64.4,69,29.89,10.0,NNE,16.1,21.9,N/A,,Scattered Clouds,30,2012-10-26 18:35:00
2:55 PM,75.2,64.4,69,29.88,10.0,NNE,18.4,23.0,N/A,,Scattered Clouds,30,2012-10-26 18:55:00
3:15 PM,75.2,64.4,69,29.88,10.0,NNE,16.1,19.6,N/A,,Scattered Clouds,20,2012-10-26 19:15:00
3:35 PM,73.4,64.4,73,29.88,10.0,NNE,12.7,19.6,N/A,,Clear,30,2012-10-26 19:35:00
3:55 PM,73.4,64.4,73,29.87,10.0,North,13.8,19.6,N/A,,Clear,360,2012-10-26 19:55:00
4:15 PM,73.4,64.4,73,29.86,10.0,North,11.5,20.7,N/A,,Clear,360,2012-10-26 20:15:00
4:35 PM,71.6,64.4,78,29.86,10.0,North,17.3,-,N/A,,Clear,10,2012-10-26 20:35:00
4:55 PM,71.6,64.4,78,29.86,10.0,North,11.5,-,N/A,,Clear,10,2012-10-26 20:55:00
5:15 PM,71.6,64.4,78,29.86,10.0,North,12.7,18.4,N/A,,Clear,360,2012-10-26 21:15:00
5:35 PM,71.6,64.4,78,29.85,10.0,North,12.7,17.3,N/A,,Clear,360,2012-10-26 21:35:00
6:15 PM,69.8,64.4,83,29.85,10.0,North,10.4,17.3,N/A,,Clear,360,2012-10-26 22:15:00
6:35 PM,69.8,64.4,83,29.85,10.0,North,12.7,18.4,N/A,,Clear,360,2012-10-26 22:35:00
6:55 PM,69.8,64.4,83,29.85,10.0,North,11.5,18.4,N/A,,Mostly Cloudy,360,2012-10-26 22:55:00
7:15 PM,69.8,64.4,83,29.85,10.0,North,15.0,19.6,N/A,,Scattered Clouds,10,2012-10-26 23:15:00
7:35 PM,69.8,64.4,83,29.85,10.0,North,11.5,20.7,N/A,,Mostly Cloudy,10,2012-10-26 23:35:00
7:55 PM,69.8,64.4,83,29.85,10.0,North,13.8,18.4,N/A,,Mostly Cloudy,360,2012-10-26 23:55:00
8:15 PM,69.8,64.4,83,29.84,10.0,North,11.5,19.6,N/A,,Overcast,10,2012-10-27 00:15:00
8:35 PM,69.8,64.4,83,29.83,10.0,North,13.8,23.0,N/A,,Overcast,10,2012-10-27 00:35:00
8:55 PM,69.8,64.4,83,29.83,10.0,North,15.0,21.9,N/A,,Overcast,10,2012-10-27 00:55:00
9:15 PM,69.8,64.4,83,29.83,10.0,NNE,15.0,24.2,N/A,,Overcast,20,2012-10-27 01:15:00
9:35 PM,69.8,64.4,83,29.83,10.0,NNE,16.1,24.2,N/A,,Overcast,20,2012-10-27 01:35:00
9:55 PM,68.0,64.4,88,29.83,10.0,NNE,12.7,-,N/A,,Scattered Clouds,30,2012-10-27 01:55:00
10:15 PM,68.0,64.4,88,29.82,10.0,NNE,12.7,20.7,N/A,,Scattered Clouds,30,2012-10-27 02:15:00
10:35 PM,69.8,64.4,83,29.82,10.0,North,13.8,-,N/A,,Scattered Clouds,10,2012-10-27 02:35:00
10:55 PM,69.8,64.4,83,29.81,10.0,North,15.0,20.7,N/A,,Overcast,10,2012-10-27 02:55:00
11:35 PM,68.0,64.4,88,29.80,10.0,North,10.4,20.7,N/A,,Overcast,10,2012-10-27 03:35:00
11:55 PM,68.0,64.4,88,29.79,10.0,North,10.4,-,N/A,,Mostly Cloudy,10,2012-10-27 03:55:00